sat.trackr.live / text

‹ back to catalog

STARLINK-31466

NORAD 59420 · 2024-064Y

PAYLOAD ACTIVE UNKNOWN

§ Identity

Operator
Country
US
Launch date
2024-04-05
Launch site
AFETR
Launch vehicle
Mass (kg)
RCS (m²)

Purposes: comms

External: N2YO · Heavens-Above · Gunter

§ Orbital elements

Epoch: 2026-09-21T15:58:46.375392Z

Period
94.27 min
Inclination
43.0035°
Eccentricity
0.0000992
Mean motion
15.27577105 rev/d
Perigee alt
482.4 km
Apogee alt
483.7 km
Semi-major
6,861.2 km
B*
3.9468e-5
RAAN
29.7581°
Arg perigee
250.8375°
Mean anomaly
109.2369°
Rev number
13,919

§ Raw data

STARLINK-314661 59420U 24064Y   26264.66581453  .00000824  00000+0  39468-4 0  99912 59420  43.0035  29.7581 0000992 250.8375 109.2369 15.27577105139192

JSON: /api/v1/satellites/59420 · /tle

For live sub-satellite position, see the globe view (requires WebGL).

§ Visibility from observer

Set your observer location to see the next 7 days of passes ≥ 10°. The values pass through the URL so the page stays shareable.

No JS? Fill the form by hand. The geolocation button needs JavaScript.